Flag for Germany Weather past 2 weeks in Potsdam, Brandenburg, Germany

Now
58 °F

Passing clouds.


Feels Like: 57 °F
Forecast: 57 / 74 °F
Wind: 6 mph from East

Location: Potsdam

Current Time: Sep 17, 2014 at 9:45:02 AM

Latest Report: Sep 17, 2014 at 9:00 AM


Visibility: 14 mi

Pressure: 30.08 "Hg

Humidity: 84%

Dew point: 53 °F

Location of PotsdamLocation

Historic Weather in Potsdam — Graph

°F

Potsdam temperature yesterday

Maximum temperature yesterday: 75 °F (at 5:00 PM)
Minimum temperature yesterday: 58 °F (at 7:00 AM)
Average temperature yesterday: 65 °F

Past Weeks' High & Low Weather Summary

 TemperatureHumidityPressure
High81 °F (Sep 6, 5:00 PM)99% (Sep 11, 1:00 AM)30.30 "Hg (Sep 11, 1:00 AM)
Low52 °F (Sep 9, 4:00 AM)43% (Sep 8, 3:00 PM)29.86 "Hg (Sep 6, 6:00 PM)
Average63 °F82%30.07 "Hg
* Reported Sep 2 9:00 AM — Sep 17 9:00 AM, Potsdam, Weather by CustomWeather, © 2014

Note: Actual official high and low records may vary slightly from our data, if they occured in-between our weather recording intervals... More about our weather records

Advertising

Potsdam weather history for previous 24 hours

 ConditionsComfort  
Time TempWeatherWind HumidityBarometerVisibility
9:00 AM
Sep 17
58 °FPassing clouds.6 mph84%30.08 "Hg14 mi
8:00 AM56 °FPassing clouds.6 mph88%30.08 "Hg16 mi
7:00 AM56 °FPassing clouds.6 mph87%30.07 "Hg12 mi
6:00 AM56 °FPassing clouds.6 mph86%30.06 "Hg14 mi
5:00 AM57 °FPassing clouds.6 mph84%30.07 "Hg16 mi
4:00 AM58 °FClear.6 mph84%30.08 "Hg16 mi
3:00 AM59 °FClear.6 mph83%30.08 "Hg16 mi
2:00 AM60 °FClear.6 mph85%30.08 "Hg16 mi
1:00 AM60 °FPassing clouds.6 mph85%30.08 "Hg14 mi
12:00 AM60 °FPassing clouds.5 mph85%30.09 "Hg14 mi
11:00 PM
Sep 16
62 °FPassing clouds.5 mph84%30.09 "Hg14 mi
10:00 PM63 °FPassing clouds.6 mph82%30.09 "Hg15 mi
9:00 PM64 °FPassing clouds.5 mph82%30.09 "Hg14 mi
8:00 PM65 °FPassing clouds.5 mph80%30.07 "Hg12 mi
7:00 PM69 °FPassing clouds.5 mph74%30.06 "Hg11 mi
6:00 PM73 °FScattered clouds.5 mph63%30.06 "Hg11 mi
5:00 PM75 °FPassing clouds.5 mph56%30.06 "Hg11 mi
4:00 PM74 °FScattered clouds.5 mph60%30.07 "Hg11 mi
3:00 PM74 °FScattered clouds.5 mph60%30.07 "Hg11 mi
2:00 PM73 °FPartly sunny.6 mph61%30.08 "Hg11 mi
1:00 PM71 °FScattered clouds.6 mph63%30.09 "Hg11 mi
12:00 PM69 °FScattered clouds.3 mph73%30.10 "Hg11 mi
11:00 AM67 °FScattered clouds.3 mph75%30.11 "Hg10 mi
10:00 AM64 °FPartly sunny.5 mph80%30.11 "Hg10 mi
9:00 AM61 °FPartly sunny.6 mph85%30.10 "Hg10 mi
Weather by CustomWeather, © 2014

See weather overviewHow to use our weather pages